Location: Bremen
(53.0830°N, 8.8000°E)
Time: 15:01:55
(UTC+02:00)

ISS - Visible Passes

Search period start: 17 July 2025 00:00
Search period end: 27 July 2025 00:00
Orbit: 415 x 418 km, 51.6° (Epoch: 17 July)

Date Brightness Start Highest point End Pass type
(mag) Time Alt. Az. Time Alt. Az. Time Alt. Az.
17 Jul -3.0 00:21:40 10° W 00:24:43 34° SSW 00:25:24 30° S visible
17 Jul -3.3 23:33:18 10° W 23:36:31 43° SSW 23:38:29 20° SE visible
18 Jul -1.3 01:10:51 10° WSW 01:11:22 12° WSW 01:11:22 12° WSW visible
18 Jul -3.5 22:44:59 10° W 22:48:16 54° SSW 22:51:33 10° ESE visible
19 Jul -2.1 00:22:04 10° W 00:24:31 19° SW 00:24:31 19° SW visible
19 Jul -2.5 23:33:32 10° W 23:36:24 26° SSW 23:37:41 20° S visible
20 Jul -2.9 22:45:05 10° W 22:48:11 35° SSW 22:50:54 12° SE visible
21 Jul -1.7 23:34:09 10° WSW 23:36:06 15° SW 23:37:01 13° SSW visible
22 Jul -2.0 22:45:23 10° W 22:47:56 20° SSW 22:50:17 11° SSE visible
24 Jul -1.2 22:46:49 10° SW 22:47:29 10° SW 22:48:09 10° SSW visible
